Weather History for KRSW - January, 2014

Change the Weather History Date:

Monday, January 6, 2014

  Actual Average Record
Temperature  
Mean Temperature 64 °F -  
Max Temperature 79 °F 76 °F 86 °F (1982)
Min Temperature 50 °F 55 °F 33 °F (1999)
Growing Degree Days 14 (Base 50)    
Moisture  
Dew Point 60 °F    
Average Humidity 82    
Maximum Humidity 100    
Minimum Humidity 39    
Precipitation  
Precipitation 0.00 in - - ()
Sea Level Pressure  
Sea Level Pressure 30.05 in    
Wind  
Wind Speed 4 mph (West)    
Max Wind Speed 16 mph    
Max Gust Speed 30 mph    
Visibility 8 miles    
Events Fog    
Averages and records for this station are not official NWS values.
T = Trace of Precipitation, MM = Missing Value Source: NWS Daily Summary

Daily Weather History Graph

Daily Weather History Graph

Search for Another Location

Airport or City:

Trip Planner

Search our weather history database for the weather conditions in past years. The results will help you decide how hot, cold, wet, or windy it might be!

Date:

Astronomy

Jan. 06, 2014 Rise Set
Actual Time 7:16 AM EST 5:49 PM EST
Civil Twilight 6:51 AM EST 6:14 PM EST
Nautical Twilight 6:22 AM EST 6:43 PM EST
Astronomical Twilight 5:54 AM EST 7:11 PM EST
Moon 11:06 AM EST (1/6) 11:42 PM EST (1/6)
Length of Visible Light 11h 23m
Length of Day
10h 33m
Waxing Crescent, 34% of the Moon is Illuminated
Jan 6
Waxing Crescent
Jan 7
First Quarter
Jan 15
Full
Jan 24
Last Quarter
Jan 30
New

Hourly Weather History & Observations

Time (EST) Temp. Dew Point Humidity Pressure Visibility Wind Dir Wind Speed Gust Speed Precip Events Conditions
12:07 AM 66.9 °F 64.9 °F 93% 30.01 in 10.0 mi Calm Calm - N/A   Mostly Cloudy
12:20 AM 66.9 °F 64.9 °F 93% 30.00 in 10.0 mi Calm Calm - N/A   Scattered Clouds
12:53 AM 66.9 °F 64.9 °F 93% 29.99 in 10.0 mi SSW 3.5 mph - N/A   Scattered Clouds
1:12 AM 66.9 °F 64.9 °F 93% 29.99 in 10.0 mi SSW 3.5 mph - N/A   Mostly Cloudy
1:38 AM 66.9 °F 66.0 °F 97% 29.99 in 10.0 mi SSW 3.5 mph - N/A   Scattered Clouds
1:53 AM 66.0 °F 64.9 °F 96% 29.99 in 9.0 mi Calm Calm - N/A   Partly Cloudy
2:07 AM 66.9 °F 66.0 °F 97% 29.99 in 10.0 mi Calm Calm - N/A   Mostly Cloudy
2:40 AM 66.0 °F 64.9 °F 96% 29.99 in 10.0 mi SW 3.5 mph - N/A   Partly Cloudy
2:53 AM 66.0 °F 64.9 °F 96% 29.99 in 10.0 mi Calm Calm - N/A   Partly Cloudy
3:53 AM 66.9 °F 66.0 °F 97% 29.99 in 10.0 mi Calm Calm - N/A   Overcast
4:41 AM 64.9 °F 64.0 °F 97% 30.00 in 9.0 mi SSE 5.8 mph - N/A   Mostly Cloudy
4:53 AM 66.0 °F 64.9 °F 96% 29.99 in 9.0 mi Calm Calm - N/A   Partly Cloudy
5:40 AM 66.0 °F 64.9 °F 96% 30.00 in 6.0 mi Calm Calm - N/A   Mostly Cloudy
5:53 AM 66.0 °F 64.9 °F 96% 29.99 in 9.0 mi Calm Calm - N/A   Overcast
6:19 AM 66.9 °F 66.0 °F 97% 30.00 in 1.5 mi WSW 5.8 mph - N/A   Overcast
6:28 AM 66.9 °F 66.0 °F 97% 30.00 in 0.5 mi WSW 3.5 mph - N/A Fog Fog
6:35 AM 66.9 °F 66.9 °F 100% 30.00 in 0.2 mi WSW 3.5 mph - N/A Fog Fog
6:53 AM 68.0 °F 68.0 °F 100% 30.00 in 0.2 mi SW 3.5 mph - N/A Fog Fog
7:53 AM 68.0 °F 68.0 °F 100% 30.02 in 0.2 mi WSW 4.6 mph - N/A Fog Fog
8:42 AM 69.1 °F 68.0 °F 96% 30.05 in 0.8 mi SSW 4.6 mph - N/A   Mist
8:53 AM 69.1 °F 68.0 °F 96% 30.05 in 0.5 mi SSW 4.6 mph - N/A Fog Fog
9:13 AM 69.1 °F 68.0 °F 96% 30.06 in 1.2 mi SW 4.6 mph - N/A   Overcast
9:19 AM 69.1 °F 68.0 °F 96% 30.06 in 3.0 mi WSW 4.6 mph - N/A   Overcast
9:53 AM 70.0 °F 69.1 °F 97% 30.06 in 10.0 mi West 6.9 mph - N/A   Overcast
10:22 AM 72.0 °F 68.0 °F 87% 30.08 in 10.0 mi West 6.9 mph - N/A   Overcast
10:53 AM 73.9 °F 68.0 °F 82% 30.06 in 10.0 mi Variable 6.9 mph - N/A   Mostly Cloudy
11:22 AM 75.0 °F 66.9 °F 76% 30.06 in 10.0 mi West 8.1 mph - N/A   Scattered Clouds
11:53 AM 77.0 °F 66.9 °F 71% 30.05 in 10.0 mi West 5.8 mph - N/A   Scattered Clouds
12:53 PM 79.0 °F 63.0 °F 58% 30.02 in 10.0 mi West 10.4 mph - N/A   Clear
1:53 PM 78.1 °F 60.1 °F 54% 30.00 in 10.0 mi WNW 12.7 mph 20.7 mph N/A   Mostly Cloudy
2:53 PM 72.0 °F 62.1 °F 71% 30.02 in 10.0 mi NW 12.7 mph 21.9 mph N/A   Mostly Cloudy
3:53 PM 66.9 °F 59.0 °F 76% 30.05 in 10.0 mi NW 12.7 mph 21.9 mph N/A   Partly Cloudy
4:07 PM 66.0 °F 57.9 °F 75% 30.06 in 10.0 mi NNW 15.0 mph 21.9 mph N/A   Mostly Cloudy
4:44 PM 64.0 °F 55.9 °F 75% 30.08 in 10.0 mi NNW 8.1 mph - N/A   Mostly Cloudy
4:53 PM 64.0 °F 55.0 °F 73% 30.09 in 10.0 mi NNW 10.4 mph - N/A   Mostly Cloudy
5:53 PM 61.0 °F 48.9 °F 64% 30.12 in 10.0 mi NNW 15.0 mph 23.0 mph N/A   Overcast
6:53 PM 57.9 °F 37.9 °F 47% 30.14 in 10.0 mi North 12.7 mph 23.0 mph N/A   Overcast
7:53 PM 54.0 °F 32.0 °F 43% 30.19 in 10.0 mi NNW 15.0 mph 29.9 mph N/A   Overcast
8:53 PM 53.1 °F 30.9 °F 43% 30.23 in 10.0 mi North 12.7 mph 29.9 mph 0.00 in   Overcast
9:53 PM 52.0 °F 28.0 °F 40% 30.25 in 10.0 mi North 13.8 mph 21.9 mph N/A   Overcast
10:53 PM 50.0 °F 27.0 °F 41% 30.26 in 10.0 mi North 16.1 mph 26.5 mph N/A   Overcast
11:53 PM 50.0 °F 26.1 °F 39% 30.27 in 10.0 mi North 16.1 mph 23.0 mph N/A   Overcast